Time,TemperatureF,DewpointF,PressureIn,WindDirection,WindDirectionDegrees,WindSpeedMPH,WindSpeedGustMPH,Humidity,HourlyPrecipIn,Conditions,Clouds,dailyrainin,SoftwareType,DateUTC
2013-12-01 00:12:00,53.8,51.0,30.19,SSW,203,3.0,5.0,89,0.00,,,0.00,weatherlink.com 1.10,2013-12-01 06:12:00,
2013-12-01 00:27:00,53.7,51.0,30.18,South,185,2.0,8.0,90,0.00,,,0.00,weatherlink.com 1.10,2013-12-01 06:27:00,
2013-12-01 00:42:00,53.4,51.0,30.17,SSW,211,4.0,7.0,90,0.00,,,0.00,weatherlink.com 1.10,2013-12-01 06:42:00,
2013-12-01 00:57:00,53.0,51.0,30.17,SSW,207,4.0,6.0,91,0.00,,,0.00,weatherlink.com 1.10,2013-12-01 06:57:00,
2013-12-01 01:12:00,52.7,50.0,30.17,SSW,211,3.0,5.0,91,0.00,,,0.00,weatherlink.com 1.10,2013-12-01 07:12:00,
2013-12-01 01:27:00,52.3,50.0,30.18,SSW,201,2.0,4.0,92,0.00,,,0.00,weatherlink.com 1.10,2013-12-01 07:27:00,
2013-12-01 01:42:00,52.0,50.0,30.18,SSW,208,1.0,3.0,93,0.00,,,0.00,weatherlink.com 1.10,2013-12-01 07:42:00,
2013-12-01 01:57:00,51.9,50.0,30.17,SSW,204,2.0,4.0,93,0.00,,,0.00,weatherlink.com 1.10,2013-12-01 07:57:00,
2013-12-01 02:12:00,51.8,50.0,30.16,SSW,204,1.0,3.0,93,0.00,,,0.00,weatherlink.com 1.10,2013-12-01 08:12:00,
2013-12-01 02:27:00,51.9,50.0,30.16,SW,224,1.0,3.0,94,0.00,,,0.00,weatherlink.com 1.10,2013-12-01 08:27:00,
2013-12-01 02:42:00,52.2,51.0,30.17,SW,221,3.0,3.0,94,0.00,,,0.00,weatherlink.com 1.10,2013-12-01 08:42:00,
2013-12-01 02:57:00,52.7,51.0,30.16,SW,224,3.0,4.0,93,0.00,,,0.00,weatherlink.com 1.10,2013-12-01 08:57:00,
2013-12-01 03:12:00,52.5,51.0,30.16,SSW,212,5.0,5.0,93,0.00,,,0.00,weatherlink.com 1.10,2013-12-01 09:12:00,
2013-12-01 03:27:00,52.5,51.0,30.16,SSW,211,1.0,5.0,94,0.00,,,0.00,weatherlink.com 1.10,2013-12-01 09:27:00,
2013-12-01 03:42:00,52.5,51.0,30.15,SSE,167,4.0,5.0,94,0.00,,,0.00,weatherlink.com 1.10,2013-12-01 09:42:00,
2013-12-01 03:57:00,52.6,51.0,30.15,SSW,204,5.0,8.0,94,0.00,,,0.00,weatherlink.com 1.10,2013-12-01 09:57:00,
2013-12-01 04:12:00,52.5,51.0,30.14,SSW,212,4.0,6.0,94,0.00,,,0.00,weatherlink.com 1.10,2013-12-01 10:12:00,
2013-12-01 04:27:00,52.4,51.0,30.15,SSW,204,3.0,6.0,94,0.00,,,0.00,weatherlink.com 1.10,2013-12-01 10:27:00,
2013-12-01 04:42:00,52.4,51.0,30.15,SSW,205,2.0,5.0,94,0.00,,,0.00,weatherlink.com 1.10,2013-12-01 10:42:00,
2013-12-01 04:57:00,52.3,51.0,30.16,SW,224,4.0,5.0,94,0.00,,,0.00,weatherlink.com 1.10,2013-12-01 10:57:00,
2013-12-01 05:12:00,52.5,51.0,30.15,SW,215,4.0,5.0,94,0.00,,,0.00,weatherlink.com 1.10,2013-12-01 11:12:00,
2013-12-01 05:27:00,52.7,51.0,30.15,SSW,194,2.0,4.0,95,0.00,,,0.00,weatherlink.com 1.10,2013-12-01 11:27:00,
2013-12-01 05:42:00,52.9,52.0,30.14,South,174,1.0,5.0,95,0.00,,,0.00,weatherlink.com 1.10,2013-12-01 11:42:00,
2013-12-01 05:57:00,53.1,52.0,30.14,SSW,193,2.0,7.0,95,0.00,,,0.00,weatherlink.com 1.10,2013-12-01 11:57:00,
2013-12-01 06:13:00,53.2,52.0,30.14,South,191,3.0,5.0,95,0.00,,,0.00,weatherlink.com 1.10,2013-12-01 12:13:00,
2013-12-01 06:28:00,53.6,52.0,30.14,SSE,150,3.0,6.0,95,0.00,,,0.00,weatherlink.com 1.10,2013-12-01 12:28:00,
2013-12-01 06:43:00,54.0,53.0,30.13,WSW,253,4.0,7.0,95,0.00,,,0.00,weatherlink.com 1.10,2013-12-01 12:43:00,
2013-12-01 06:58:00,54.1,53.0,30.14,SW,215,5.0,6.0,95,0.00,,,0.00,weatherlink.com 1.10,2013-12-01 12:58:00,
2013-12-01 07:13:00,54.4,53.0,30.14,SSW,208,6.0,8.0,95,0.00,,,0.00,weatherlink.com 1.10,2013-12-01 13:13:00,
2013-12-01 07:28:00,54.6,53.0,30.14,SW,223,8.0,9.0,94,0.00,,,0.00,weatherlink.com 1.10,2013-12-01 13:28:00,
2013-12-01 07:43:00,55.0,53.0,30.13,South,169,8.0,10.0,94,0.00,,,0.00,weatherlink.com 1.10,2013-12-01 13:43:00,
2013-12-01 07:58:00,55.2,54.0,30.13,SSW,211,5.0,10.0,94,0.00,,,0.00,weatherlink.com 1.10,2013-12-01 13:58:00,
2013-12-01 08:13:00,55.7,54.0,30.13,SSW,212,10.0,10.0,94,0.00,,,0.00,weatherlink.com 1.10,2013-12-01 14:13:00,
2013-12-01 08:28:00,56.2,54.0,30.14,SSW,207,6.0,10.0,93,0.00,,,0.00,weatherlink.com 1.10,2013-12-01 14:28:00,
2013-12-01 08:43:00,56.8,55.0,30.13,SW,214,5.0,10.0,92,0.00,,,0.00,weatherlink.com 1.10,2013-12-01 14:43:00,
2013-12-01 08:58:00,57.8,55.0,30.14,SSW,205,6.0,13.0,91,0.00,,,0.00,weatherlink.com 1.10,2013-12-01 14:58:00,
2013-12-01 09:13:00,59.3,56.0,30.13,SSW,204,8.0,11.0,88,0.00,,,0.00,weatherlink.com 1.10,2013-12-01 15:13:00,
2013-12-01 09:28:00,60.4,56.0,30.14,SW,215,7.0,14.0,86,0.00,,,0.00,weatherlink.com 1.10,2013-12-01 15:28:00,
2013-12-01 09:43:00,61.3,57.0,30.14,WSW,240,13.0,14.0,85,0.00,,,0.00,weatherlink.com 1.10,2013-12-01 15:43:00,
2013-12-01 09:58:00,61.9,57.0,30.14,SW,233,11.0,-999.0,84,-99.99,,,0.00,weatherlink.com 1.10,2013-12-01 15:58:00,
2013-12-01 10:13:00,62.9,58.0,30.14,SW,218,8.0,11.0,83,0.00,,,0.00,weatherlink.com 1.10,2013-12-01 16:13:00,
2013-12-01 10:28:00,64.0,58.0,30.13,South,174,7.0,10.0,81,0.00,,,0.00,weatherlink.com 1.10,2013-12-01 16:28:00,
2013-12-01 10:43:00,65.2,57.0,30.12,SW,219,11.0,18.0,76,0.00,,,0.00,weatherlink.com 1.10,2013-12-01 16:43:00,
2013-12-01 10:58:00,65.4,57.0,30.12,SW,232,11.0,18.0,75,0.00,,,0.00,weatherlink.com 1.10,2013-12-01 16:58:00,
2013-12-01 11:13:00,65.7,58.0,30.11,SSW,212,11.0,14.0,75,0.00,,,0.00,weatherlink.com 1.10,2013-12-01 17:13:00,
2013-12-01 11:28:00,66.3,57.0,30.09,SW,218,9.0,17.0,73,0.00,,,0.00,weatherlink.com 1.10,2013-12-01 17:28:00,
2013-12-01 11:43:00,66.6,57.0,30.08,WSW,243,9.0,17.0,71,0.00,,,0.00,weatherlink.com 1.10,2013-12-01 17:43:00,
2013-12-01 11:59:00,66.9,57.0,30.07,SSW,207,9.0,16.0,70,0.00,,,0.00,weatherlink.com 1.10,2013-12-01 17:59:00,
2013-12-01 12:14:00,67.6,57.0,30.05,SW,229,7.0,16.0,70,0.00,,,0.00,weatherlink.com 1.10,2013-12-01 18:14:00,
2013-12-01 12:29:00,67.5,57.0,30.05,WSW,253,10.0,16.0,69,0.00,,,0.00,weatherlink.com 1.10,2013-12-01 18:29:00,
2013-12-01 12:44:00,67.8,58.0,30.04,SSW,203,7.0,12.0,71,0.00,,,0.00,weatherlink.com 1.10,2013-12-01 18:44:00,
2013-12-01 12:59:00,67.8,58.0,30.04,SW,214,11.0,14.0,70,0.00,,,0.00,weatherlink.com 1.10,2013-12-01 18:59:00,
2013-12-01 13:14:00,67.9,58.0,30.02,SSW,210,12.0,13.0,70,0.00,,,0.00,weatherlink.com 1.10,2013-12-01 19:14:00,
2013-12-01 13:29:00,68.2,58.0,30.01,South,191,6.0,14.0,69,0.00,,,0.00,weatherlink.com 1.10,2013-12-01 19:29:00,
2013-12-01 13:44:00,68.2,58.0,30.01,SW,235,10.0,15.0,69,0.00,,,0.00,weatherlink.com 1.10,2013-12-01 19:44:00,
2013-12-01 13:59:00,68.3,57.0,30.00,SSW,211,10.0,14.0,68,0.00,,,0.00,weatherlink.com 1.10,2013-12-01 19:59:00,
2013-12-01 14:29:00,68.2,57.0,30.00,SW,228,10.0,14.0,67,0.00,,,0.00,weatherlink.com 1.10,2013-12-01 20:29:00,
2013-12-01 14:44:00,68.2,57.0,29.99,WSW,253,12.0,15.0,68,0.00,,,0.00,weatherlink.com 1.10,2013-12-01 20:44:00,
2013-12-01 14:59:00,68.1,57.0,29.99,WSW,255,8.0,14.0,68,0.00,,,0.00,weatherlink.com 1.10,2013-12-01 20:59:00,
2013-12-01 15:14:00,67.8,57.0,29.98,SSW,208,11.0,13.0,69,0.00,,,0.00,weatherlink.com 1.10,2013-12-01 21:14:00,
2013-12-01 15:29:00,67.4,57.0,29.98,SW,229,14.0,15.0,70,0.00,,,0.00,weatherlink.com 1.10,2013-12-01 21:29:00,
2013-12-01 15:44:00,67.2,57.0,29.97,SSW,205,8.0,16.0,70,0.00,,,0.00,weatherlink.com 1.10,2013-12-01 21:44:00,
2013-12-01 16:00:00,66.8,57.0,29.96,SSW,204,8.0,14.0,71,0.00,,,0.00,weatherlink.com 1.10,2013-12-01 22:00:00,
2013-12-01 16:14:00,66.5,57.0,29.96,SSW,205,9.0,11.0,72,0.00,,,0.00,weatherlink.com 1.10,2013-12-01 22:14:00,
2013-12-01 16:29:00,66.2,57.0,29.96,SSW,208,8.0,12.0,73,0.00,,,0.00,weatherlink.com 1.10,2013-12-01 22:29:00,
2013-12-01 16:44:00,65.8,57.0,29.96,SSW,208,4.0,9.0,74,0.00,,,0.00,weatherlink.com 1.10,2013-12-01 22:44:00,
2013-12-01 16:59:00,65.4,57.0,29.96,SW,217,5.0,8.0,75,0.00,,,0.00,weatherlink.com 1.10,2013-12-01 22:59:00,
2013-12-01 17:14:00,64.9,57.0,29.95,SSE,165,2.0,6.0,76,0.00,,,0.00,weatherlink.com 1.10,2013-12-01 23:14:00,
2013-12-01 17:29:00,64.4,57.0,29.95,SW,222,2.0,5.0,77,0.00,,,0.00,weatherlink.com 1.10,2013-12-01 23:29:00,
2013-12-01 17:44:00,64.0,57.0,29.96,SSW,211,1.0,4.0,78,0.00,,,0.00,weatherlink.com 1.10,2013-12-01 23:44:00,
2013-12-01 17:59:00,63.4,57.0,29.95,SW,226,3.0,3.0,79,0.00,,,0.00,weatherlink.com 1.10,2013-12-01 23:59:00,
2013-12-01 18:14:00,63.0,57.0,29.95,SSW,212,1.0,3.0,80,0.00,,,0.00,weatherlink.com 1.10,2013-12-02 00:14:00,
2013-12-01 18:29:00,62.6,57.0,29.95,SW,215,2.0,3.0,81,0.00,,,0.00,weatherlink.com 1.10,2013-12-02 00:29:00,
2013-12-01 18:44:00,62.3,57.0,29.95,WSW,245,2.0,4.0,82,0.00,,,0.00,weatherlink.com 1.10,2013-12-02 00:44:00,
2013-12-01 18:59:00,62.2,57.0,29.95,WSW,257,0.0,2.0,82,0.00,,,0.00,weatherlink.com 1.10,2013-12-02 00:59:00,
2013-12-01 19:14:00,61.9,57.0,29.96,West,260,0.0,1.0,83,0.00,,,0.00,weatherlink.com 1.10,2013-12-02 01:14:00,
2013-12-01 19:29:00,61.6,56.0,29.96,West,260,0.0,1.0,83,0.00,,,0.00,weatherlink.com 1.10,2013-12-02 01:29:00,
2013-12-01 19:44:00,60.8,56.0,29.95,SSW,210,2.0,3.0,85,0.00,,,0.00,weatherlink.com 1.10,2013-12-02 01:44:00,
2013-12-01 19:59:00,60.8,56.0,29.95,SW,225,1.0,3.0,85,0.00,,,0.00,weatherlink.com 1.10,2013-12-02 01:59:00,
2013-12-01 20:14:00,60.6,56.0,29.95,SW,225,2.0,2.0,85,0.00,,,0.00,weatherlink.com 1.10,2013-12-02 02:14:00,
2013-12-01 20:29:00,60.2,56.0,29.95,SW,226,0.0,1.0,86,0.00,,,0.00,weatherlink.com 1.10,2013-12-02 02:29:00,
2013-12-01 20:44:00,59.5,56.0,29.95,SW,218,1.0,3.0,87,0.00,,,0.00,weatherlink.com 1.10,2013-12-02 02:44:00,
2013-12-01 21:00:00,59.2,55.0,29.95,SW,217,2.0,2.0,87,0.00,,,0.00,weatherlink.com 1.10,2013-12-02 03:00:00,
2013-12-01 21:14:00,58.7,55.0,29.93,SW,221,2.0,4.0,88,0.00,,,0.00,weatherlink.com 1.10,2013-12-02 03:14:00,
2013-12-01 21:29:00,59.0,56.0,29.94,SW,236,3.0,4.0,89,0.00,,,0.00,weatherlink.com 1.10,2013-12-02 03:29:00,
2013-12-01 21:44:00,58.6,55.0,29.94,SSW,201,3.0,4.0,89,0.00,,,0.00,weatherlink.com 1.10,2013-12-02 03:44:00,
2013-12-01 21:59:00,58.0,55.0,29.94,WSW,246,1.0,2.0,90,0.00,,,0.00,weatherlink.com 1.10,2013-12-02 03:59:00,
2013-12-01 22:14:00,58.0,55.0,29.93,SW,219,3.0,4.0,90,0.00,,,0.00,weatherlink.com 1.10,2013-12-02 04:14:00,
2013-12-01 22:29:00,58.1,55.0,29.93,SW,215,4.0,5.0,90,0.00,,,0.00,weatherlink.com 1.10,2013-12-02 04:29:00,
2013-12-01 22:45:00,57.8,55.0,29.92,WSW,246,2.0,4.0,90,0.00,,,0.00,weatherlink.com 1.10,2013-12-02 04:45:00,
2013-12-01 23:00:00,57.4,55.0,29.93,NW,313,2.0,5.0,90,0.00,,,0.00,weatherlink.com 1.10,2013-12-02 05:00:00,
2013-12-01 23:15:00,56.8,55.0,29.93,WNW,303,1.0,3.0,92,0.00,,,0.00,weatherlink.com 1.10,2013-12-02 05:15:00,
2013-12-01 23:30:00,56.4,54.0,29.92,WNW,287,0.0,2.0,92,0.00,,,0.00,weatherlink.com 1.10,2013-12-02 05:30:00,
2013-12-01 23:45:00,55.3,53.0,29.92,WNW,286,0.0,0.0,92,0.00,,,0.00,weatherlink.com 1.10,2013-12-02 05:45:00,